Showing default

TIANSHI 01, 68415

Orbit data source: Space-Track

TIANSHI 01, 68415 is a payload satellite owned by Unknown (CN) (CN) in LEO that was launched on Mon, 30 Mar 2026 UTC via a LIJIAN-2 launch vehicle from the Jiuquan Satellite Launch Center, China (JSC). Payload-class satellites include a variety of spacecraft equipped with specific instruments for various scientific and technological missions. These include communications satellites like Starlink; space stations such as the ISS; scientific satellites like the Hubble; Earth observation satellites from companies like Planet Labs, Umbra, and HawkEye 360; GPS; miniature CubeSats for education and research; and military/defense satellites.

Loading next visibility...
Identifier
68415, 2026-066D
Orbit
LEO
Country
Flag of CNCN / PRC
Related business
Flag of CNUnknown Chinese Operator (CN)
Manufacturer
Unknown (CN)
Mission
Operational spacecraft
Bus & Motor
TIANSHI, Unknown motor
Mass
~100 kg wet, ~100 kg dry
Launch date (UTC)
2026-03-30 (3 months ago)
Launch vehicle
LIJIAN-2
Launch site
Jiuquan Satellite Launch Center, China (JSC)
Object type
Payload
Rocket body
Debris
Shape & HBR
Unknown shape, 0.4 m
Radar Cross Section
Medium (>0.1 m² and <1 m²)

Expand to show TLE details & history
Last TLE update: 8 hours ago

TLE from 8 hours ago
0 TIANSHI 01
1 68415U 26066D   26171.51503698  .00001476  00000-0  15424-3 0  9995
2 68415  84.9657 225.6121 0023484 238.7160 121.1764 14.88702330 12227
Epoch: 2026-06-20T12:21Z
TLE epoch observation values (Epoch: 2026-06-20T12:21:39.195Z)
Latitude
-0°
Longitude
131.47023°
Altitude
613.609 km
Speed
7.548 km/s
True Right ascension
15h 02m 26s
True Declination
0° 00' 00"
Sunlit
Object was in full shadow at epoch
Visualization orbit readout
Latitude
Unknown
Longitude
Unknown
Altitude
Unknown
Speed
Unknown
Apparent Right ascension
Unknown
Apparent Declination
Unknown
Sunlit
N/A
Visualization observer readout
Local Sidereal Time
07:18:46
Azimuth
Unknown
Elevation
Unknown
Doppler factor
Unknown
Orbital elements
Apogee altitude
615.297 km
Perigee altitude
582.527 km
Semi-major axis
6,977.049 km
Eccentricity
0.00235
Inclination
84.9657°
RAAN
225.6121°
Arg. of periapsis
238.716°
True anomaly
121.40629°
Mean anomaly
121.1764°
Eccentric anomaly
121.29138°
Mean motion
3.72422 °/min
Orbital period
96.66 mins
BSTAR
0.00015424
Loading maneuver chart data...
Computing Atmospheric mass density...
Loading historical data...
Loading historical data...
Loading historical data...
Loading historical data...
Loading historical data...
Loading historical data...
Loading historical data...
Other satellites on launch #66 in the year 2026 (2026-03-30 UTC)

Documentation

Showing up to 5 results
|